Location: Unspecified
(0.0000°N, 0.0000°E)
Time: 08:54:49
(UTC+02:00)

NATO 3D Rocket - Visible Passes

Search period start: 25 April 2018 00:00
Search period end: 05 May 2018 00:00
Orbit: 670 x 2296 km, 21.5° (Epoch: 24 April)

Date Brightness Start Highest point End Pass type
(mag) Time Alt. Az. Time Alt. Az. Time Alt. Az.
25 Apr 7.2 04:08:26 12° SE 04:08:26 12° SE 04:09:17 10° SE visible
25 Apr 6.1 06:03:58 24° SSW 06:07:50 30° S 06:15:07 10° ESE visible
25 Apr 5.3 20:30:22 10° WNW 20:39:13 74° NNE 20:50:16 15° ESE visible
25 Apr 5.7 22:34:19 10° W 22:45:14 59° SSW 22:45:48 59° S visible
26 Apr 7.5 00:41:01 10° WSW 00:41:19 11° WSW 00:41:19 11° WSW visible
26 Apr 6.3 05:10:14 28° SSE 05:10:14 28° SSE 05:17:27 10° ESE visible
26 Apr 5.5 07:05:45 11° SW 07:15:34 44° SSE 07:22:35 10° E visible
26 Apr 5.4 21:36:41 10° WNW 21:46:27 69° SSW 21:52:03 39° SE visible
26 Apr 6.7 23:42:14 10° W 23:47:34 28° WSW 23:47:34 28° WSW visible
27 Apr 6.9 04:16:30 18° SE 04:16:30 18° SE 04:19:26 10° ESE visible
27 Apr 5.8 06:12:01 26° SSW 06:17:21 39° SSE 06:25:18 10° E visible
27 Apr 5.2 20:39:30 10° WNW 20:48:05 83° SSW 20:58:18 17° ESE visible
27 Apr 6.0 22:44:00 10° W 22:53:50 45° SSW 22:53:50 45° SSW visible
28 Apr 6.1 05:18:16 36° S 05:18:45 36° SSE 05:27:41 10° ESE visible
28 Apr 5.1 07:13:48 10° WSW 07:24:49 63° SSE 07:32:18 10° E visible
28 Apr 5.7 21:46:15 10° W 21:55:31 52° SSW 22:00:04 37° SSE visible
28 Apr 7.0 23:52:18 10° WSW 23:55:35 20° WSW 23:55:35 20° WSW visible
29 Apr 6.7 04:24:32 26° SE 04:24:32 26° SE 04:29:39 10° ESE visible
29 Apr 5.5 06:20:04 28° SW 06:26:39 54° SSE 06:35:10 10° E visible
29 Apr 5.3 20:48:55 10° W 20:57:06 60° SSW 21:06:18 18° SE visible
29 Apr 6.3 22:54:00 10° WSW 23:01:49 34° SSW 23:01:49 34° SSW visible
30 Apr 7.4 03:30:48 11° ESE 03:30:48 11° ESE 03:31:09 10° ESE visible
30 Apr 5.8 05:26:20 45° S 05:28:05 47° SSE 05:37:40 10° E visible
30 Apr 5.0 07:22:14 10° WSW 07:33:52 88° SSE 07:41:42 10° ENE visible
30 Apr 5.9 21:56:09 10° W 22:04:49 39° SSW 22:08:02 34° SSE visible
01 May 7.3 00:02:29 10° WSW 00:03:34 13° SW 00:03:34 13° SW visible
01 May 6.3 04:32:35 36° SE 04:32:35 36° SE 04:39:43 10° E visible
01 May 5.3 06:28:06 28° WSW 06:35:44 73° SSE 06:44:42 10° ENE visible
01 May 5.6 20:58:41 10° W 21:06:21 43° SSW 21:14:15 18° SE visible
01 May 6.6 23:04:13 10° WSW 23:09:46 25° SSW 23:09:46 25° SSW visible
02 May 7.2 03:38:49 17° ESE 03:38:49 17° ESE 03:41:15 10° ESE visible
02 May 5.6 05:34:20 52° SSW 05:37:11 62° SSE 05:47:20 10° E visible
02 May 5.2 07:30:58 10° WSW 07:42:45 68° NNW 07:50:49 10° ENE visible
02 May 6.2 22:06:20 10° WSW 22:14:19 30° S 22:15:58 29° S visible
03 May 6.0 04:40:33 49° SE 04:40:33 49° SE 04:49:30 10° E visible
03 May 5.3 06:36:05 25° WSW 06:44:36 84° NNW 06:53:56 10° ENE visible
03 May 5.9 21:08:47 10° WSW 21:15:50 32° S 21:22:09 18° SE visible
03 May 6.8 23:14:27 10° SW 23:17:40 19° SW 23:17:40 19° SW visible
04 May 6.9 03:46:46 25° ESE 03:46:46 25° ESE 03:51:10 10° E visible
04 May 5.4 05:42:17 55° SW 05:46:04 81° SSE 05:56:40 10° ENE visible
04 May 5.6 20:11:31 10° WSW 20:17:44 34° SSW 20:26:21 10° SE visible
04 May 6.3 22:16:41 10° SW 22:23:51 24° S 22:23:51 24° S visible
